Simultaneous Nadir Overpasses (SNOs) Predictions

Prediction of SNOs between LANDSAT-8 and METOP-B Satellite Orbit:

Table of predicted SNOs for the next 14.0 days since TLE Epoch: 2/24/2024
Index Date (LANDSAT-8) Time (LANDSAT-8) Lat,Lon (LANDSAT-8) SZA (LANDSAT-8 ) Date (METOP-B) Time (METOP-B) Lat,Lon (METOP-B) SZA (METOP-B ) Distance(km) Time Diff (sec)
1 02/24/2024 03:55:02 81.29, 163.57 92.83 02/24/2024 03:55:10 81.30, 163.59 92.84 0.84 8
2 02/26/2024 22:39:49 -81.30, 62.47 88.18 02/26/2024 22:38:55 -81.30, 62.58 88.19 1.84 54
3 02/26/2024 23:29:15 81.30,-129.76 91.83 02/26/2024 23:29:35 81.30,-129.90 91.82 2.39 20
4 02/29/2024 18:14:01 -81.30, 128.95 89.22 02/29/2024 18:13:19 -81.30, 129.03 89.23 1.31 42
5 02/29/2024 19:03:27 81.31, -63.30 90.78 02/29/2024 19:03:59 81.30, -63.47 90.78 2.86 32
6 03/03/2024 13:48:14 -81.29,-164.79 90.31 03/03/2024 13:47:44 -81.30,-164.61 90.29 3.20 30
7 03/03/2024 14:37:39 81.31, 3.31 89.75 03/03/2024 14:38:23 81.31, 3.27 89.76 0.97 44
8 03/06/2024 09:22:25 -81.31, -97.99 91.33 03/06/2024 09:22:08 -81.30, -97.93 91.33 1.11 17



Historial Predications of SNOs between LANDSAT-8 and METOP-B
